    Observer details:
    104 San Marcello Pistoiese.  Observers P. Bacci, M. Maestripieri.  Measurers
        P. Bacci, L. Tesi, G. Fagioli.  0.60-m reflector + CCD.
    160 Castelmartini.  Observers M. Jaeger, E. Prosperi, S. Prosperi,
        W. Vollmann.  Measurer E. Prosperi.  0.35-m f/10 Schmidt-Cassegrain + CCD.
    203 GiaGa Observatory.  Observers S. Foglia, G. Galli.  Measurer G. Galli.
        0.36-m f/7.50 Schmidt-Cassegrain + CCD.
    204 Schiaparelli Observatory.  Observer L. Buzzi.  0.60-m f/4.64 reflector +
        CCD.
    595 Farra dIsonzo.  Observer E. Pettarin.  0.61-m f/4.5 reflector + CCD.
    C77 Bernezzo Observatory.  Observer A. Mantero.  0.25-m f/1000.0 reflector +
        CCD.
    C95 SATINO Remote Observatory, Haute Provence.  Observer J. Jahn.  0.60-m
        f/3.2 Newtonian reflector + CCD.
    G96 Mt. Lemmon Survey.  Observer A. R. Gibbs.  Measurers B. M. Africano,
        E. J. Christensen, G. A. Farneth, D. C. Fuls, A. R. Gibbs, A. D. Grauer,
        H. Groeller, R. A. Kowalski, S. M. Larson, G. J. Leonard, R. L. Seaman,
        F. C. Shelly.  1.5-m reflector + 10K CCD.
    H15 ISON-NM Observatory, Mayhill.  Observer L. Elenin.  0.4-m f/3 reflector +
        CCD.
    I41 Palomar Mountain--ZTF.  Observer A. U. Tomatic.  Measurers H.-W. Lin,
        F. J. Masci, Q.-Z. Ye.  1.2-m f/2.4 Schmidt.
    I52 Steward Observatory, Mt. Lemmon Station.  Observer H. Groeller.
        Measurers B. M. Africano, E. J. Christensen, G. A. Farneth, D. C. Fuls,
        A. R. Gibbs, A. D. Grauer, H. Groeller, R. A. Kowalski, S. M. Larson,
        G. J. Leonard, R. L. Seaman, F. C. Shelly.  1.0-m reflector + CCD.
    J95 Great Shefford.  Observer P. Birtwhistle.  0.41-m f/6.3
        Schmidt-Cassegrain + CCD.
    K63 G. Pascoli Observatory, Castelvecchio Pascoli.  Observer R. Bacci.
        0.41-m f/3.2 Newtonian reflector + CCD.
    L01 Visnjan Observatory, Tican.  Observer K. Korlevic.  1.0-m f/2.9 reflector
        + CCD.
    P93 Space Tracking and Communications Center, JAXA.  Observers S. Okumura,
        T. Fujiwara.  1.0-m f/3.0 reflector + CCD.
    T08 ATLAS-MLO, Mauna Loa.  Observers L. Denneau, J. Tonry, A. Heinze,
        H. Weiland.  Measurers L. Denneau, J. Tonry, A. Heinze, H. Weiland,
        B. Stalder.  0.5-m reflector + CCD.
    Z80 Northolt Branch Observatory.  Observer G. Wells.  Measurer D. Bamberger.
        0.25-m f/8.0 Ritchey-Chretien + CCD.
    
    Orbital elements:
    2018 XF4                                                 Earth MOID = 0.0195 AU
    Epoch 2019 Apr. 27.0 TT = JDT 2458600.5                 MPC
    M 112.87174              (2000.0)            P               Q
    n   0.69142049     Peri.  327.64927     +0.59921643     -0.67428532
    a   1.2666051      Node    81.63952     +0.79546120     +0.44054427
    e   0.2301542      Incl.   25.86399     +0.09044965     +0.59267195
    P   1.43           H   25.1           G   0.15           U   6
    Residuals in seconds of arc
    181213 I41  1.0+  0.2+    181213 Z80 (0.7+  1.5-)   181214 104  0.8+  0.2-
    181213 I41  0.2+  0.5+    181213 Z80  0.9+  0.2+    181214 104  0.3-  0.4+
    181213 G96  0.5-  1.5+    181214 I41  0.3-  0.0     181214 104  0.1-  0.1-
    181213 G96  0.0   1.3+    181214 I41  0.1+  1.0+    181214 203  0.1+  0.3+
    181213 G96  0.2+  0.2+    181214 I41  0.6+  0.6+    181214 203  0.4-  0.6+
    181213 G96  0.2-  0.1-    181214 I41  0.2+  1.0+    181214 204  0.1-  0.2-
    181213 G96  0.2+  0.8-    181214 H15  0.5-  0.7-    181214 204  0.1-  0.2-
    181213 G96  0.0   0.7-    181214 H15  0.1+  0.3-    181214 204  0.3-  0.1+
    181213 I52  0.0   0.3+    181214 H15  1.3+  1.0-    181214 204  0.2-  0.4+
    181213 I52  0.0   0.2-    181214 H15  0.9+  0.5-    181214 203  0.1+  0.2-
    181213 I52  0.1-  0.4-    181214 I52  0.2-  0.2-    181214 204  0.1-  0.1-
    181213 I52  0.3+  0.3-    181214 I52  0.3-  0.1-    181215 C95  0.5+  0.2-
    181213 I52  0.3+  0.4-    181214 I52  0.2-  0.3-    181215 C95  0.2-  0.0
    181213 I52  0.8-  1.2-    181214 I52  0.1-  0.6+    181215 K63  0.4-  0.7-
    181213 I52  0.1-  0.3-    181214 T08  0.2+  0.4-    181215 K63  1.3+  1.2+
    181213 I52  0.2+  0.5-    181214 T08  0.2-  0.2+    181215 K63  0.8-  0.8+
    181213 I52  0.1+  0.6-    181214 T08  0.2-  0.7+    181215 C95  0.3+  0.9+
    181213 I52  0.5+  0.5-    181214 P93  0.4+  0.5-    181215 K63  0.4+  0.2-
    181213 I52  0.5-  0.2+    181214 P93  0.0   0.2+    181215 595  0.5-  0.3+
    181213 J95  0.4-  0.2+    181214 P93  0.8+  0.3-    181215 595  0.2-  0.4+
    181213 J95  0.2-  0.1-    181214 C77  0.2-  0.2+    181215 L01  0.1-  0.3-
    181213 J95  0.1-  0.1-    181214 C77  0.4-  1.0+    181215 L01  0.2-  0.5-
    181213 J95  0.1+  0.4+    181214 C77  0.2-  0.5+    181215 L01  0.2+  0.2-
    181213 J95  0.2-  0.0     181214 160  0.6+  0.5-    181215 595  0.5-  0.0
    181213 J95  0.1-  0.0     181214 160  0.1+  1.4-    181215 L01  0.2-  0.3-
    181213 J95  0.1+  0.0     181214 160 (0.3-  2.4-)   181215 L01  0.0   0.7-
    181213 Z80 (2.0+  1.1-)   181214 160  0.2+  0.2-    181215 595  0.6-  0.1-
    181213 Z80  0.8+  0.0     181214 160  0.6+  1.0-
    
    Ephemeris:
    2018 XF4                 a,e,i = 1.27, 0.23, 26                  q = 0.9751
    Date    TT    R. A. (2000) Decl.     Delta      r     Elong.  Phase     V
    2018 11 15    07 27 25.5 -73 52 22   0.2295  0.9748    79.7    86.9    24.9
    ...
    2018 11 30    07 04 47.4 -68 38 53   0.1128  0.9832    85.1    88.3    23.4
    ...
    2018 12 08    06 39 00.6 -55 22 36   0.04866 0.9939    99.0    78.2    21.3
    ...
    2018 12 14    05 53 02.9 +27 31 01   0.02037 1.0046   172.1     7.8    17.2
    2018 12 15    05 40 17.2 +46 47 05   0.02426 1.0065   156.3    23.1    18.1
    2018 12 16    05 25 09.1 +59 35 27   0.03009 1.0086   143.7    35.3    19.0
    ...
    2018 12 22    02 41 57.8 +82 29 17   0.07619 1.0219   118.2    58.0    21.6
    ...
    2018 12 30    23 07 18.0 +84 00 02   0.1419  1.0423   110.9    61.8    23.2
    ...
    2019 01 14    22 08 22.2 +83 49 31   0.2623  1.0873   106.5    60.2    24.5
    
    A. U. Tomatic                (C) Copyright 2018 MPC           M.P.E.C. 2018-X123
    

    Read MPEC 2018-X122 Read MPEC 2018-X124


    MPEC number:

    Enter an MPEC number in one of the following forms:

    • 1997-B01 (the full form)
    • J97B01 (the packed version of the full form)
    • B01 (the abbreviated form)